Location: Sungai Bunut
(2.6333°N, 113.7333°E)
Time: 15:16:09
(UTC+00:00)

Altair - Pass Details

Date: 05 December 2023
Orbit: 1501 x 1682 km, 47.2° (Epoch: 24 February)

Event Time Altitude Azimuth Distance (km) Brightness Sun altitude
Rises 20:27:42 0° 206° (SSW) 4,932 10.1 -25.9°
Reaches altitude 10° 20:31:07 10° 199° (SSW) 3,942 9.7 -25.1°
Maximum altitude 20:40:38 45° 130° (SE) 2,156 8.7 -22.9°
Drops below altitude 10° 20:49:53 10° 60° (ENE) 3,859 10.1 -20.8°
Sets 20:53:09 0° 54° (NE) 4,821 10.5 -20.1°
